Résultats de la compétition "Chpt de France Moyenne Distance Arcey" du 08-05-2010 organisée par le club 2105
     
  Télécharger le fichier CSV.  
     
     

 Circuit "I bis"

Licence Nom Prénom Temps CN
précédent
Score sur
la course
Différence
17418LAFARGEEmeline0:19:0732283571+343
10396HABERKORNChloé0:20:0938213388-433
17925DROINSolene0:20:2124793355+876
10184BODYMathilde0:21:3528913163+272
19486BISSIERECamille0:23:1429742939-35
13638KORCHAKNathalie0:23:5130522863-189
22819GUILLEMETOcéane0:24:16N/A2814N/A
12403FALGABeatrice0:25:0619442720+776
12709BEAUVIRMaelle0:25:0925212715+194
11559ROULLEAUXJulie0:25:1439192706-1213
22451RIVOLLIERIsaline0:25:4702648N/A
21188ANGLADELucile0:26:1313232604+1281
16555PICAZOMarie0:26:4629272551-376
10091LUTHRINGERColine0:27:2021022498+396
11508LEBIHANBarbara0:27:3028962483-413
9402BORNARDJulie0:27:3519892475+486
20386DUTERAGEMarie0:27:5313382449+1111
15018GUINOTMarion0:29:0632322346-886
10430VALETTEMarion0:30:5018972214+317
16393FOLLoreline0:31:0429432198-745
23384BASSETFiona0:31:08N/A2193N/A
22991PEYRARDJulie0:31:15N/A2185N/A
19778LIGERClara0:32:0814762125+649
22301MOUSSUSarah0:32:3302098N/A
20067DELAPORTELéa0:33:2625722042-530
10758BESTELSandra0:33:4026242028-596
6487MOLINIERCaroline0:33:4631302022-1108
12758DASILVAAuriane0:34:3311421976+834
16137ELIASPauline0:34:3323431976-367
19276PETER-JANLucile0:34:4132731969-1304
13800DELENNECamillia0:34:5624551954-501
12609PRATCharline0:35:2815831925+342
21958CLAUZEAUCléa0:36:0027301897-833.3333
16985LANGEARDVictoria0:37:1713321831+499
19894DEFIXJulia0:39:1221351742-393
12045CHAILLARDDana0:39:4417571718-39
22216LECOEUCHECharlotte0:41:0901659N/A
22673KESMEDJIANNinon0:41:24N/A1649N/A
15586FENEUILCoralie0:41:2519981648-350
12518ROUXAlicia0:44:3301533N/A
22713PEDRAZZOLILilou0:46:52N/A1457N/A
20022PELLETIERMathilde0:47:584991423+924
18829CRETEJuliette0:52:1021241309-815
22291CAZEMAYORTess0:56:3201208N/A
22198FEUGEASClothilde0:57:3301186N/A
22860MASSINMargot0:58:14N/A1172N/A
9143PORTELouise1:02:0418941100-794
11038RAIMBAULTAude1:04:0814391065-374
19689GIRARDLucilleN/A27410-2741
20160JEANNERETJulieN/AN/A0N/A

  Indice de confiance du circuit (moyenne des différences entre CN et score sur la course des 3 à 10 premiers) : 180






 Retour